| time (UTC) | temp F | wind direction | speed MPH | gust MPH | rain 1hr in | rain 24hr in | rain mn in | humidity % | barometer mb |
| 20260506214724 | 81 | 63 | 3.0 | 6.0 | 0.00 | 0.00 | 0.00 | 72 | 1010.0 |
| 20260506214224 | 81 | 20 | 3.0 | 14.0 | 0.00 | 0.00 | 0.00 | 73 | 1011.0 |
| 20260506213724 | 83 | 61 | 4.0 | 9.0 | 0.00 | 0.00 | 0.00 | 71 | 1010.0 |
| 20260506213223 | 83 | 64 | 3.0 | 5.0 | 0.00 | 0.00 | 0.00 | 70 | 1010.0 |
| 20260506212723 | 82 | 87 | 2.0 | 4.0 | 0.00 | 0.00 | 0.00 | 71 | 1010.0 |
| 20260506212224 | 82 | 51 | 4.0 | 6.0 | 0.00 | 0.00 | 0.00 | 73 | 1011.0 |
| 20260506211724 | 82 | 43 | 2.0 | 5.0 | 0.00 | 0.00 | 0.00 | 75 | 1010.0 |
| 20260506211223 | 82 | 66 | 2.0 | 5.0 | 0.00 | 0.00 | 0.00 | 75 | 1010.0 |
| 20260506210723 | 82 | 87 | 2.0 | 7.0 | 0.00 | 0.00 | 0.00 | 75 | 1010.0 |
| 20260506210224 | 83 | 61 | 4.0 | 5.0 | 0.00 | 0.00 | 0.00 | 74 | 1011.0 |
| 20260506205723 | 83 | 0 | 2.0 | 5.0 | 0.00 | 0.00 | 0.00 | 74 | 1011.0 |
| 20260506205223 | 83 | 43 | 3.0 | 3.0 | 0.00 | 0.00 | 0.00 | 74 | 1011.0 |
| 20260506204723 | 84 | 195 | 0.0 | 3.0 | 0.00 | 0.00 | 0.00 | 73 | 1011.0 |
| 20260506204223 | 84 | 92 | 2.0 | 5.0 | 0.00 | 0.00 | 0.00 | 73 | 1011.0 |
| 20260506203723 | 84 | 92 | 2.0 | 5.0 | 0.00 | 0.00 | 0.00 | 73 | 1011.0 |
| 20260506203224 | 86 | 54 | 3.0 | 5.0 | 0.00 | 0.00 | 0.00 | 70 | 1011.0 |
| 20260506202723 | 86 | 54 | 3.0 | 5.0 | 0.00 | 0.00 | 0.00 | 70 | 1011.0 |
| 20260506202223 | 85 | 66 | 2.0 | 5.0 | 0.00 | 0.00 | 0.00 | 72 | 1011.0 |
| 20260506201723 | 85 | 66 | 2.0 | 5.0 | 0.00 | 0.00 | 0.00 | 72 | 1011.0 |
| 20260506201223 | 84 | 47 | 4.0 | 5.0 | 0.00 | 0.00 | 0.00 | 73 | 1011.0 |
| 20260506200724 | 84 | 47 | 4.0 | 5.0 | 0.00 | 0.00 | 0.00 | 73 | 1011.0 |
| 20260506200223 | 83 | 81 | 0.0 | 3.0 | 0.00 | 0.00 | 0.00 | 74 | 1011.0 |
| 20260506195723 | 83 | 41 | 3.0 | 5.0 | 0.00 | 0.00 | 0.00 | 75 | 1011.0 |
| 20260506195225 | 82 | 33 | 2.0 | 5.0 | 0.00 | 0.00 | 0.00 | 75 | 1011.0 |
| 20260506194725 | 83 | 34 | 5.0 | 6.0 | 0.00 | 0.00 | 0.00 | 74 | 1011.0 |
| 20260506194224 | 84 | 51 | 4.0 | 5.0 | 0.00 | 0.00 | 0.00 | 74 | 1011.0 |
| 20260506193723 | 82 | 44 | 0.0 | 5.0 | 0.00 | 0.00 | 0.00 | 76 | 1011.0 |
| 20260506193226 | 83 | 53 | 2.0 | 4.0 | 0.00 | 0.00 | 0.00 | 74 | 1011.0 |
| 20260506192725 | 82 | 139 | 1.0 | 4.0 | 0.00 | 0.00 | 0.00 | 77 | 1011.0 |
| 20260506192224 | 83 | 64 | 2.0 | 4.0 | 0.00 | 0.00 | 0.00 | 77 | 1011.0 |
| 20260506191726 | 82 | 87 | 3.0 | 5.0 | 0.00 | 0.00 | 0.00 | 77 | 1011.0 |
| 20260506191225 | 82 | 75 | 1.0 | 5.0 | 0.00 | 0.00 | 0.00 | 77 | 1012.0 |
| 20260506190726 | 81 | 98 | 3.0 | 5.0 | 0.00 | 0.00 | 0.00 | 77 | 1012.0 |
| 20260506190226 | 82 | 74 | 1.0 | 4.0 | 0.00 | 0.00 | 0.00 | 76 | 1011.0 |
| 20260506185723 | 81 | 95 | 0.0 | 4.0 | 0.00 | 0.00 | 0.00 | 77 | 1011.0 |
| 20260506185223 | 81 | 79 | 0.0 | 3.0 | 0.00 | 0.00 | 0.00 | 78 | 1012.0 |
| 20260506184724 | 81 | 7 | 2.0 | 3.0 | 0.00 | 0.00 | 0.00 | 78 | 1012.0 |
| 20260506184223 | 81 | 91 | 1.0 | 3.0 | 0.00 | 0.00 | 0.00 | 79 | 1012.0 |
| 20260506183723 | 82 | 44 | 6.0 | 6.0 | 0.00 | 0.00 | 0.00 | 76 | 1012.0 |
| 20260506183224 | 81 | 32 | 4.0 | 5.0 | 0.00 | 0.00 | 0.00 | 77 | 1012.0 |
| 20260506182724 | 83 | 94 | 2.0 | 5.0 | 0.00 | 0.00 | 0.00 | 72 | 1012.0 |
| 20260506182223 | 84 | 134 | 7.0 | 7.0 | 0.00 | 0.00 | 0.00 | 72 | 1012.0 |
| 20260506181725 | 82 | 115 | 2.0 | 3.0 | 0.00 | 0.00 | 0.00 | 78 | 1012.0 |
| 20260506181224 | 82 | 113 | 3.0 | 4.0 | 0.00 | 0.00 | 0.00 | 75 | 1012.0 |
| 20260506180723 | 82 | 80 | 2.0 | 3.0 | 0.00 | 0.00 | 0.00 | 77 | 1012.0 |
| 20260506180224 | 82 | 139 | 2.0 | 3.0 | 0.00 | 0.00 | 0.00 | 77 | 1012.0 |
| 20260506175724 | 82 | 56 | 0.0 | 3.0 | 0.00 | 0.00 | 0.00 | 76 | 1012.0 |
| 20260506175224 | 82 | 82 | 0.0 | 4.0 | 0.00 | 0.00 | 0.00 | 78 | 1012.0 |
| 20260506174729 | 81 | 2 | 0.0 | 5.0 | 0.00 | 0.00 | 0.00 | 79 | 1012.0 |
| 20260506174223 | 82 | 77 | 1.0 | 3.0 | 0.00 | 0.00 | 0.00 | 80 | 1012.0 |
| 20260506173724 | 80 | 171 | 0.0 | 3.0 | 0.00 | 0.00 | 0.00 | 82 | 1012.0 |
| 20260506173224 | 80 | 50 | 3.0 | 5.0 | 0.00 | 0.00 | 0.00 | 83 | 1012.0 |
| 20260506172724 | 80 | 61 | 2.0 | 3.0 | 0.00 | 0.00 | 0.00 | 84 | 1012.0 |
| 20260506172223 | 79 | 59 | 2.0 | 3.0 | 0.00 | 0.00 | 0.00 | 86 | 1012.0 |
| 20260506171723 | 78 | 54 | 2.0 | 3.0 | 0.00 | 0.00 | 0.00 | 88 | 1012.0 |
| 20260506171223 | 78 | 109 | 2.0 | 3.0 | 0.00 | 0.00 | 0.00 | 89 | 1013.0 |
| 20260506170723 | 77 | 86 | 1.0 | 4.0 | 0.00 | 0.00 | 0.00 | 90 | 1012.0 |
| 20260506170223 | 78 | 89 | 2.0 | 3.0 | 0.00 | 0.00 | 0.00 | 91 | 1012.0 |
| 20260506165723 | 77 | 102 | 3.0 | 3.0 | 0.00 | 0.00 | 0.00 | 92 | 1013.0 |
| 20260506165223 | 76 | 72 | 2.0 | 3.0 | 0.00 | 0.00 | 0.00 | 93 | 1012.0 |
| 20260506164723 | 77 | 59 | 2.0 | 3.0 | 0.00 | 0.00 | 0.00 | 94 | 1013.0 |
| 20260506164223 | 76 | 82 | 1.0 | 2.0 | 0.00 | 0.00 | 0.00 | 95 | 1013.0 |
| 20260506163723 | 75 | 61 | 3.0 | 3.0 | 0.00 | 0.00 | 0.00 | 95 | 1013.0 |
| 20260506163227 | 75 | 67 | 3.0 | 3.0 | 0.02 | 0.00 | 0.00 | 96 | 1013.0 |
| 20260506162723 | 75 | 52 | 4.0 | 5.0 | 0.02 | 0.00 | 0.00 | 96 | 1013.0 |
| 20260506162224 | 76 | 62 | 2.0 | 3.0 | 0.00 | 0.00 | 0.00 | 96 | 1013.0 |
| 20260506161723 | 75 | 41 | 2.0 | 4.0 | 0.00 | 0.00 | 0.00 | 96 | 1013.0 |
| 20260506161224 | 76 | 84 | 2.0 | 4.0 | 0.00 | 0.00 | 0.00 | 95 | 1013.0 |
| 20260506160724 | 76 | 55 | 2.0 | 3.0 | 0.00 | 0.00 | 0.00 | 95 | 1013.0 |
| 20260506160224 | 76 | 49 | 2.0 | 2.0 | 0.00 | 0.00 | 0.00 | 94 | 1013.0 |
| 20260506155723 | 77 | 156 | 0.0 | 2.0 | 0.00 | 0.00 | 0.00 | 93 | 1013.0 |
| 20260506155224 | 76 | 83 | 2.0 | 2.0 | 0.00 | 0.00 | 0.00 | 93 | 1012.0 |
| 20260506154724 | 75 | 75 | 0.0 | 2.0 | 0.00 | 0.00 | 0.00 | 93 | 1013.0 |
| 20260506154223 | 76 | 60 | 2.0 | 2.0 | 0.00 | 0.00 | 0.00 | 93 | 1012.0 |
| 20260506153726 | 76 | 88 | 1.0 | 3.0 | 0.00 | 0.00 | 0.00 | 94 | 1012.0 |
| 20260506153223 | 75 | 127 | 1.0 | 2.0 | 0.00 | 0.00 | 0.00 | 94 | 1012.0 |
| 20260506152724 | 76 | 71 | 2.0 | 3.0 | 0.00 | 0.00 | 0.00 | 94 | 1012.0 |
| 20260506152223 | 76 | 72 | 2.0 | 3.0 | 0.00 | 0.00 | 0.00 | 93 | 1012.0 |
| 20260506151723 | 76 | 185 | 0.0 | 2.0 | 0.00 | 0.00 | 0.00 | 94 | 1012.0 |
| 20260506151224 | 76 | 154 | 0.0 | 2.0 | 0.00 | 0.00 | 0.00 | 94 | 1012.0 |
| 20260506150725 | 76 | 40 | 0.0 | 2.0 | 0.00 | 0.00 | 0.00 | 94 | 1012.0 |
| 20260506150225 | 75 | 29 | 0.0 | 1.0 | 0.00 | 0.00 | 0.00 | 95 | 1012.0 |
| 20260506145724 | 75 | 84 | 1.0 | 1.0 | 0.00 | 0.00 | 0.00 | 95 | 1012.0 |
| 20260506145224 | 75 | 44 | 0.0 | 2.0 | 0.00 | 0.00 | 0.00 | 95 | 1012.0 |
| 20260506144723 | 75 | 80 | 1.0 | 2.0 | 0.00 | 0.00 | 0.00 | 95 | 1012.0 |
| 20260506144224 | 75 | 61 | 2.0 | 3.0 | 0.00 | 0.00 | 0.00 | 95 | 1012.0 |
| 20260506143723 | 75 | 89 | 2.0 | 2.0 | 0.00 | 0.00 | 0.00 | 95 | 1012.0 |
| 20260506143223 | 75 | 76 | 2.0 | 2.0 | 0.00 | 0.00 | 0.00 | 95 | 1012.0 |
| 20260506142723 | 75 | 73 | 1.0 | 3.0 | 0.00 | 0.00 | 0.00 | 95 | 1011.0 |
| 20260506142223 | 75 | 94 | 1.0 | 3.0 | 0.00 | 0.00 | 0.00 | 94 | 1011.0 |
| 20260506141724 | 75 | 66 | 2.0 | 3.0 | 0.00 | 0.00 | 0.00 | 94 | 1011.0 |
| 20260506141224 | 75 | 85 | 1.0 | 2.0 | 0.00 | 0.00 | 0.00 | 94 | 1011.0 |
| 20260506140723 | 75 | 123 | 1.0 | 3.0 | 0.00 | 0.00 | 0.00 | 94 | 1010.0 |
| 20260506140225 | 75 | 114 | 1.0 | 2.0 | 0.00 | 0.00 | 0.00 | 94 | 1011.0 |
| 20260506135724 | 75 | 76 | 1.0 | 2.0 | 0.00 | 0.00 | 0.00 | 94 | 1010.0 |
| 20260506135224 | 75 | 111 | 1.0 | 3.0 | 0.00 | 0.00 | 0.00 | 95 | 1010.0 |
| 20260506134724 | 75 | 101 | 2.0 | 3.0 | 0.00 | 0.00 | 0.00 | 95 | 1010.0 |
| 20260506134224 | 75 | 115 | 1.0 | 2.0 | 0.00 | 0.00 | 0.00 | 95 | 1010.0 |
| 20260506133723 | 75 | 91 | 2.0 | 3.0 | 0.00 | 0.00 | 0.00 | 95 | 1010.0 |
| 20260506133224 | 75 | 117 | 2.0 | 3.0 | 0.00 | 0.00 | 0.00 | 95 | 1010.0 |
| 20260506132723 | 75 | 82 | 4.0 | 4.0 | 0.00 | 0.00 | 0.00 | 95 | 1010.0 |
| 20260506132223 | 75 | 124 | 3.0 | 3.0 | 0.00 | 0.00 | 0.00 | 95 | 1010.0 |
| 20260506131724 | 75 | 139 | 3.0 | 3.0 | 0.00 | 0.00 | 0.00 | 95 | 1010.0 |
| 20260506131224 | 75 | 102 | 2.0 | 3.0 | 0.00 | 0.00 | 0.00 | 95 | 1010.0 |
| 20260506130727 | 75 | 74 | 2.0 | 4.0 | 0.00 | 0.00 | 0.00 | 95 | 1010.0 |
| 20260506130223 | 75 | 85 | 2.0 | 3.0 | 0.00 | 0.00 | 0.00 | 95 | 1010.0 |
| 20260506125724 | 74 | 67 | 2.0 | 2.0 | 0.00 | 0.00 | 0.00 | 96 | 1010.0 |
| 20260506125224 | 75 | 55 | 2.0 | 3.0 | 0.00 | 0.00 | 0.00 | 96 | 1010.0 |
| 20260506124723 | 74 | 110 | 1.0 | 3.0 | 0.00 | 0.00 | 0.00 | 96 | 1010.0 |
| 20260506124223 | 74 | 98 | 2.0 | 3.0 | 0.00 | 0.00 | 0.00 | 96 | 1010.0 |
| 20260506123724 | 74 | 156 | 3.0 | 4.0 | 0.00 | 0.00 | 0.00 | 96 | 1010.0 |
| 20260506123224 | 74 | 94 | 1.0 | 3.0 | 0.00 | 0.00 | 0.00 | 96 | 1010.0 |
| 20260506122723 | 74 | 80 | 2.0 | 2.0 | 0.00 | 0.00 | 0.00 | 96 | 1010.0 |
| 20260506122224 | 74 | 138 | 3.0 | 4.0 | 0.00 | 0.00 | 0.00 | 96 | 1010.0 |
| 20260506121723 | 74 | 89 | 0.0 | 3.0 | 0.00 | 0.00 | 0.00 | 96 | 1010.0 |
| 20260506121223 | 74 | 124 | 3.0 | 3.0 | 0.00 | 0.00 | 0.00 | 96 | 1010.0 |
| 20260506120723 | 74 | 116 | 3.0 | 3.0 | 0.00 | 0.00 | 0.00 | 96 | 1010.0 |
| 20260506120224 | 74 | 172 | 6.0 | 6.0 | 0.00 | 0.00 | 0.00 | 96 | 1010.0 |
| 20260506115724 | 74 | 135 | 3.0 | 4.0 | 0.00 | 0.00 | 0.00 | 96 | 1010.0 |
| 20260506115223 | 74 | 130 | 4.0 | 4.0 | 0.00 | 0.00 | 0.00 | 96 | 1010.0 |
| 20260506114723 | 74 | 146 | 4.0 | 6.0 | 0.00 | 0.00 | 0.00 | 95 | 1010.0 |
| 20260506114223 | 74 | 109 | 2.0 | 4.0 | 0.00 | 0.00 | 0.00 | 96 | 1010.0 |
| 20260506113724 | 74 | 150 | 3.0 | 6.0 | 0.00 | 0.00 | 0.00 | 95 | 1009.0 |
| 20260506113224 | 75 | 137 | 3.0 | 6.0 | 0.00 | 0.00 | 0.00 | 95 | 1010.0 |
| 20260506112725 | 75 | 139 | 5.0 | 5.0 | 0.00 | 0.00 | 0.00 | 95 | 1009.0 |
| 20260506112226 | 75 | 121 | 3.0 | 6.0 | 0.00 | 0.00 | 0.00 | 95 | 1010.0 |
| 20260506111726 | 75 | 115 | 2.0 | 3.0 | 0.00 | 0.00 | 0.00 | 95 | 1009.0 |
| 20260506111226 | 75 | 112 | 0.0 | 3.0 | 0.00 | 0.00 | 0.00 | 95 | 1010.0 |
| 20260506110724 | 75 | 162 | 3.0 | 4.0 | 0.00 | 0.00 | 0.00 | 95 | 1010.0 |
| 20260506110228 | 75 | 162 | 3.0 | 5.0 | 0.00 | 0.00 | 0.00 | 95 | 1009.0 |
| 20260506105725 | 75 | 121 | 2.0 | 3.0 | 0.00 | 0.00 | 0.00 | 95 | 1009.0 |
| 20260506105223 | 75 | 158 | 1.0 | 3.0 | 0.00 | 0.00 | 0.00 | 95 | 1009.0 |
| 20260506104723 | 75 | 129 | 3.0 | 3.0 | 0.00 | 0.00 | 0.00 | 95 | 1010.0 |
| 20260506104223 | 75 | 129 | 2.0 | 3.0 | 0.00 | 0.00 | 0.00 | 95 | 1010.0 |
| 20260506103725 | 75 | 136 | 2.0 | 2.0 | 0.00 | 0.00 | 0.00 | 95 | 1010.0 |
| 20260506103225 | 75 | 129 | 2.0 | 3.0 | 0.00 | 0.00 | 0.00 | 95 | 1009.0 |
| 20260506102725 | 75 | 151 | 4.0 | 4.0 | 0.00 | 0.00 | 0.00 | 95 | 1009.0 |
| 20260506102223 | 75 | 157 | 4.0 | 4.0 | 0.00 | 0.00 | 0.00 | 95 | 1009.0 |
| 20260506101723 | 75 | 143 | 2.0 | 3.0 | 0.00 | 0.00 | 0.00 | 95 | 1009.0 |
| 20260506101225 | 75 | 175 | 3.0 | 5.0 | 0.00 | 0.00 | 0.00 | 95 | 1009.0 |
| 20260506100725 | 75 | 139 | 5.0 | 5.0 | 0.00 | 0.00 | 0.00 | 95 | 1009.0 |
| 20260506100225 | 75 | 138 | 4.0 | 4.0 | 0.00 | 0.00 | 0.00 | 95 | 1009.0 |
| 20260506095724 | 75 | 159 | 5.0 | 6.0 | 0.00 | 0.00 | 0.00 | 95 | 1009.0 |
| 20260506095224 | 75 | 123 | 2.0 | 3.0 | 0.00 | 0.00 | 0.00 | 95 | 1009.0 |
| 20260506094723 | 75 | 160 | 2.0 | 6.0 | 0.00 | 0.00 | 0.00 | 95 | 1009.0 |
| 20260506094223 | 75 | 175 | 2.0 | 6.0 | 0.00 | 0.00 | 0.00 | 95 | 1009.0 |
| 20260506093723 | 75 | 154 | 3.0 | 5.0 | 0.00 | 0.00 | 0.00 | 94 | 1009.0 |
| 20260506093223 | 75 | 166 | 5.0 | 8.0 | 0.00 | 0.00 | 0.00 | 94 | 1008.0 |
| 20260506092723 | 75 | 148 | 7.0 | 11.0 | 0.00 | 0.00 | 0.00 | 94 | 1009.0 |
| 20260506092224 | 75 | 148 | 4.0 | 6.0 | 0.00 | 0.00 | 0.00 | 94 | 1009.0 |
| 20260506091723 | 75 | 126 | 6.0 | 9.0 | 0.00 | 0.00 | 0.00 | 94 | 1009.0 |
| 20260506091226 | 75 | 176 | 5.0 | 6.0 | 0.00 | 0.00 | 0.00 | 94 | 1009.0 |
| 20260506090725 | 75 | 119 | 3.0 | 6.0 | 0.00 | 0.00 | 0.00 | 93 | 1009.0 |
| 20260506090224 | 75 | 156 | 4.0 | 5.0 | 0.00 | 0.00 | 0.00 | 93 | 1009.0 |
| 20260506085723 | 75 | 134 | 4.0 | 6.0 | 0.00 | 0.00 | 0.00 | 93 | 1009.0 |
| 20260506085224 | 75 | 138 | 9.0 | 9.0 | 0.00 | 0.00 | 0.00 | 93 | 1009.0 |
| 20260506084723 | 75 | 160 | 3.0 | 6.0 | 0.00 | 0.00 | 0.00 | 93 | 1009.0 |
| 20260506084223 | 75 | 127 | 4.0 | 7.0 | 0.00 | 0.00 | 0.00 | 93 | 1009.0 |
| 20260506083724 | 75 | 120 | 3.0 | 6.0 | 0.00 | 0.00 | 0.00 | 93 | 1009.0 |
| 20260506083223 | 75 | 109 | 3.0 | 6.0 | 0.00 | 0.00 | 0.00 | 93 | 1009.0 |
| 20260506082723 | 75 | 167 | 3.0 | 8.0 | 0.00 | 0.00 | 0.00 | 92 | 1009.0 |
| 20260506082223 | 75 | 146 | 5.0 | 6.0 | 0.00 | 0.00 | 0.00 | 92 | 1009.0 |
| 20260506081723 | 76 | 150 | 7.0 | 7.0 | 0.00 | 0.00 | 0.00 | 92 | 1009.0 |
| 20260506081223 | 76 | 153 | 3.0 | 6.0 | 0.00 | 0.00 | 0.00 | 92 | 1009.0 |
| 20260506080724 | 76 | 152 | 5.0 | 8.0 | 0.00 | 0.00 | 0.00 | 92 | 1009.0 |
| 20260506080223 | 76 | 131 | 8.0 | 10.0 | 0.00 | 0.00 | 0.00 | 92 | 1009.0 |
| 20260506073223 | 76 | 154 | 3.0 | 7.0 | 0.00 | 0.00 | 0.00 | 92 | 1009.0 |
| 20260506072723 | 76 | 149 | 4.0 | 9.0 | 0.00 | 0.00 | 0.00 | 91 | 1009.0 |
| 20260506072224 | 76 | 130 | 9.0 | 10.0 | 0.00 | 0.00 | 0.00 | 91 | 1009.0 |
| 20260506071727 | 76 | 133 | 6.0 | 7.0 | 0.00 | 0.00 | 0.00 | 92 | 1009.0 |
| 20260506071224 | 76 | 161 | 3.0 | 6.0 | 0.00 | 0.00 | 0.00 | 92 | 1009.0 |
| 20260506070723 | 76 | 145 | 6.0 | 8.0 | 0.00 | 0.00 | 0.00 | 92 | 1009.0 |
| 20260506070223 | 76 | 103 | 2.0 | 7.0 | 0.00 | 0.00 | 0.00 | 92 | 1009.0 |
| 20260506062223 | 76 | 141 | 4.0 | 11.0 | 0.00 | 0.00 | 0.00 | 92 | 1010.0 |
| 20260506061723 | 76 | 147 | 3.0 | 6.0 | 0.00 | 0.00 | 0.00 | 92 | 1009.0 |
| 20260506061223 | 76 | 120 | 6.0 | 11.0 | 0.00 | 0.00 | 0.00 | 92 | 1009.0 |
| 20260506060723 | 76 | 114 | 3.0 | 8.0 | 0.00 | 0.00 | 0.00 | 91 | 1009.0 |
| 20260506060223 | 76 | 130 | 4.0 | 11.0 | 0.00 | 0.00 | 0.00 | 91 | 1009.0 |
| 20260506051223 | 76 | 116 | 2.0 | 5.0 | 0.00 | 0.00 | 0.00 | 91 | 1009.0 |
| 20260506050724 | 76 | 106 | 3.0 | 6.0 | 0.00 | 0.00 | 0.00 | 91 | 1009.0 |
| 20260506050224 | 76 | 139 | 7.0 | 8.0 | 0.00 | 0.00 | 0.00 | 91 | 1009.0 |
| 20260506044723 | 77 | 102 | 3.0 | 6.0 | 0.00 | 0.00 | 0.00 | 90 | 1009.0 |
| 20260506044224 | 77 | 114 | 4.0 | 8.0 | 0.00 | 0.00 | 0.00 | 90 | 1010.0 |
| 20260506043724 | 77 | 120 | 3.0 | 7.0 | 0.00 | 0.00 | 0.00 | 90 | 1010.0 |
| 20260506043224 | 77 | 106 | 4.0 | 7.0 | 0.00 | 0.00 | 0.00 | 90 | 1010.0 |
| 20260506042723 | 77 | 111 | 3.0 | 6.0 | 0.00 | 0.00 | 0.00 | 90 | 1010.0 |
| 20260506042223 | 77 | 121 | 3.0 | 10.0 | 0.00 | 0.00 | 0.00 | 90 | 1009.0 |
| 20260506041724 | 77 | 116 | 6.0 | 9.0 | 0.00 | 0.00 | 0.00 | 90 | 1009.0 |
| 20260506041224 | 77 | 166 | 4.0 | 9.0 | 0.00 | 0.00 | 0.00 | 90 | 1009.0 |
| 20260506040723 | 77 | 142 | 4.0 | 7.0 | 0.00 | 0.00 | 0.00 | 90 | 1009.0 |
| 20260506040224 | 77 | 113 | 3.0 | 7.0 | 0.00 | 0.00 | 0.00 | 90 | 1009.0 |
| 20260506035724 | 77 | 144 | 7.0 | 9.0 | 0.00 | 0.00 | 0.00 | 90 | 1009.0 |
| 20260506035223 | 77 | 139 | 5.0 | 9.0 | 0.00 | 0.00 | 0.00 | 90 | 1009.0 |
| 20260506034723 | 77 | 129 | 3.0 | 5.0 | 0.00 | 0.00 | 0.00 | 90 | 1009.0 |
| 20260506034223 | 77 | 136 | 6.0 | 6.0 | 0.00 | 0.00 | 0.00 | 90 | 1009.0 |
| 20260506033724 | 77 | 82 | 3.0 | 7.0 | 0.00 | 0.00 | 0.00 | 90 | 1009.0 |
| 20260506033223 | 77 | 116 | 2.0 | 5.0 | 0.00 | 0.00 | 0.00 | 90 | 1009.0 |
| 20260506032723 | 77 | 137 | 5.0 | 8.0 | 0.00 | 0.00 | 0.00 | 89 | 1009.0 |
| 20260506032223 | 77 | 114 | 4.0 | 8.0 | 0.00 | 0.00 | 0.00 | 89 | 1009.0 |
| 20260506031723 | 77 | 104 | 3.0 | 6.0 | 0.00 | 0.00 | 0.00 | 89 | 1009.0 |
| 20260506031223 | 77 | 95 | 3.0 | 7.0 | 0.00 | 0.00 | 0.00 | 89 | 1009.0 |
| 20260506030723 | 78 | 142 | 5.0 | 7.0 | 0.00 | 0.00 | 0.00 | 88 | 1008.0 |
| 20260506030223 | 78 | 133 | 8.0 | 9.0 | 0.00 | 0.00 | 0.00 | 88 | 1008.0 |
| 20260506025724 | 78 | 124 | 3.0 | 6.0 | 0.00 | 0.00 | 0.00 | 88 | 1008.0 |
| 20260506025223 | 78 | 139 | 10.0 | 11.0 | 0.00 | 0.00 | 0.00 | 88 | 1008.0 |
| 20260506024234 | 78 | 160 | 8.0 | 12.0 | 0.00 | 0.00 | 0.00 | 87 | 1008.0 |
| 20260506023723 | 79 | 108 | 4.0 | 12.0 | 0.00 | 0.00 | 0.00 | 86 | 1008.0 |
| 20260506023224 | 79 | 106 | 3.0 | 10.0 | 0.00 | 0.00 | 0.00 | 86 | 1008.0 |
| 20260506022723 | 79 | 125 | 9.0 | 12.0 | 0.00 | 0.00 | 0.00 | 85 | 1008.0 |
| 20260506022225 | 80 | 123 | 8.0 | 12.0 | 0.00 | 0.00 | 0.00 | 85 | 1008.0 |
| 20260506021723 | 80 | 132 | 9.0 | 10.0 | 0.00 | 0.00 | 0.00 | 84 | 1008.0 |
| 20260506021226 | 80 | 117 | 7.0 | 7.0 | 0.00 | 0.00 | 0.00 | 84 | 1008.0 |
| 20260506020723 | 80 | 153 | 4.0 | 10.0 | 0.00 | 0.00 | 0.00 | 84 | 1008.0 |
| 20260506020223 | 81 | 128 | 3.0 | 4.0 | 0.00 | 0.00 | 0.00 | 83 | 1008.0 |
| 20260506015723 | 81 | 115 | 4.0 | 7.0 | 0.00 | 0.00 | 0.00 | 83 | 1008.0 |
| 20260506015224 | 81 | 123 | 5.0 | 12.0 | 0.00 | 0.00 | 0.00 | 82 | 1008.0 |
| 20260506014723 | 81 | 143 | 4.0 | 7.0 | 0.00 | 0.00 | 0.00 | 82 | 1007.0 |
| 20260506014223 | 82 | 134 | 5.0 | 6.0 | 0.00 | 0.00 | 0.00 | 81 | 1007.0 |
| 20260506013723 | 82 | 100 | 3.0 | 10.0 | 0.00 | 0.00 | 0.00 | 80 | 1007.0 |
| 20260506013224 | 82 | 123 | 2.0 | 8.0 | 0.00 | 0.00 | 0.00 | 79 | 1007.0 |
| 20260506012723 | 82 | 120 | 3.0 | 9.0 | 0.00 | 0.00 | 0.00 | 78 | 1007.0 |
| 20260506012224 | 83 | 113 | 3.0 | 5.0 | 0.00 | 0.00 | 0.00 | 78 | 1007.0 |
| 20260506011724 | 83 | 101 | 3.0 | 3.0 | 0.00 | 0.00 | 0.00 | 77 | 1007.0 |
| 20260506011225 | 83 | 134 | 5.0 | 6.0 | 0.00 | 0.00 | 0.00 | 76 | 1007.0 |
| 20260506010723 | 83 | 112 | 3.0 | 5.0 | 0.00 | 0.00 | 0.00 | 76 | 1007.0 |
| 20260506010223 | 84 | 119 | 2.0 | 3.0 | 0.00 | 0.00 | 0.00 | 76 | 1007.0 |
| 20260506005724 | 84 | 141 | 0.0 | 3.0 | 0.00 | 0.00 | 0.00 | 76 | 1007.0 |
| 20260506005224 | 84 | 141 | 1.0 | 3.0 | 0.00 | 0.00 | 0.00 | 75 | 1007.0 |
| 20260506004724 | 84 | 111 | 2.0 | 4.0 | 0.00 | 0.00 | 0.00 | 75 | 1007.0 |
| 20260506004224 | 84 | 130 | 4.0 | 7.0 | 0.00 | 0.00 | 0.00 | 74 | 1007.0 |
| 20260506003723 | 85 | 115 | 1.0 | 4.0 | 0.00 | 0.00 | 0.00 | 74 | 1007.0 |
| 20260506003223 | 84 | 106 | 1.0 | 6.0 | 0.00 | 0.00 | 0.00 | 74 | 1007.0 |
| 20260506002724 | 85 | 78 | 2.0 | 5.0 | 0.00 | 0.00 | 0.00 | 73 | 1007.0 |
| 20260506002223 | 85 | 163 | 3.0 | 5.0 | 0.00 | 0.00 | 0.00 | 73 | 1007.0 |
| 20260506001723 | 85 | 198 | 2.0 | 4.0 | 0.00 | 0.00 | 0.00 | 72 | 1007.0 |
| 20260506001223 | 85 | 127 | 3.0 | 5.0 | 0.00 | 0.00 | 0.00 | 72 | 1007.0 |
| 20260506000724 | 85 | 152 | 3.0 | 6.0 | 0.00 | 0.00 | 0.00 | 72 | 1007.0 |
| 20260506000223 | 86 | 127 | 1.0 | 6.0 | 0.00 | 0.00 | 0.00 | 71 | 1007.0 |
| 20260505235724 | 86 | 164 | 3.0 | 4.0 | 0.00 | 0.00 | 0.00 | 71 | 1007.0 |
| 20260505235223 | 86 | 104 | 3.0 | 5.0 | 0.00 | 0.00 | 0.00 | 71 | 1006.0 |
| 20260505234723 | 86 | 166 | 3.0 | 10.0 | 0.00 | 0.00 | 0.00 | 72 | 1007.0 |
| 20260505234223 | 86 | 106 | 3.0 | 6.0 | 0.00 | 0.00 | 0.00 | 71 | 1006.0 |
| 20260505233723 | 85 | 155 | 2.0 | 4.0 | 0.00 | 0.00 | 0.00 | 72 | 1006.0 |
| 20260505233223 | 85 | 142 | 5.0 | 9.0 | 0.00 | 0.00 | 0.00 | 72 | 1006.0 |
| 20260505232724 | 85 | 101 | 3.0 | 7.0 | 0.00 | 0.00 | 0.00 | 72 | 1007.0 |
| 20260505232223 | 86 | 147 | 6.0 | 11.0 | 0.00 | 0.00 | 0.00 | 72 | 1007.0 |
| 20260505231723 | 86 | 92 | 2.0 | 10.0 | 0.00 | 0.00 | 0.00 | 70 | 1006.0 |
| 20260505231223 | 86 | 151 | 6.0 | 9.0 | 0.00 | 0.00 | 0.00 | 69 | 1007.0 |
| 20260505230724 | 86 | 165 | 2.0 | 5.0 | 0.00 | 0.00 | 0.00 | 70 | 1007.0 |
| 20260505230223 | 85 | 174 | 1.0 | 5.0 | 0.00 | 0.00 | 0.00 | 71 | 1007.0 |
| 20260505225725 | 85 | 146 | 3.0 | 8.0 | 0.00 | 0.00 | 0.00 | 71 | 1007.0 |
| 20260505225223 | 86 | 130 | 3.0 | 8.0 | 0.00 | 0.00 | 0.00 | 71 | 1007.0 |
| 20260505224723 | 86 | 127 | 5.0 | 8.0 | 0.00 | 0.00 | 0.00 | 71 | 1007.0 |
| 20260505224223 | 86 | 230 | 4.0 | 4.0 | 0.00 | 0.00 | 0.00 | 70 | 1007.0 |
| 20260505223723 | 85 | 130 | 3.0 | 9.0 | 0.00 | 0.00 | 0.00 | 70 | 1007.0 |
| 20260505223223 | 85 | 166 | 4.0 | 7.0 | 0.00 | 0.00 | 0.00 | 70 | 1007.0 |
| 20260505222723 | 86 | 167 | 7.0 | 7.0 | 0.00 | 0.00 | 0.00 | 70 | 1007.0 |
| 20260505222223 | 85 | 173 | 5.0 | 9.0 | 0.00 | 0.00 | 0.00 | 70 | 1007.0 |
| 20260505221724 | 86 | 158 | 6.0 | 9.0 | 0.00 | 0.00 | 0.00 | 69 | 1007.0 |
| 20260505221223 | 85 | 117 | 2.0 | 7.0 | 0.00 | 0.00 | 0.00 | 71 | 1007.0 |
| 20260505220724 | 84 | 135 | 6.0 | 8.0 | 0.00 | 0.00 | 0.00 | 71 | 1007.0 |
| 20260505220225 | 85 | 183 | 5.0 | 6.0 | 0.00 | 0.00 | 0.00 | 71 | 1007.0 |
| 20260505215724 | 84 | 202 | 0.0 | 4.0 | 0.00 | 0.00 | 0.00 | 71 | 1007.0 |
| 20260505215223 | 85 | 197 | 6.0 | 9.0 | 0.00 | 0.00 | 0.00 | 70 | 1007.0 |